Temperature
24 22 21 21 21 21 20 20 19 19 19 19 19 18 18 18 18 18 18 17 17 17 18 17 17 17 17 17 17 17 17 17 17 17 17 17 17 17 17 17 17 17 17
23 22 22 21 21 21 21 20 20 20 19 19 19 19 18 18 18 18 18 18 17 17 17 17 17 17 17 17 17 17 17 17 17 17 17 18 18 18 18 17 17 17 17
24 23 22 21 21 21 21 20 20 20 19 19 19 18 18 18 18 18 18 18 18 17 17 17 17 17 17 17 17 17 17 17 17 17 17 18 18 18 18 17 17 17 17
24 23 22 22 21 21 21 20 20 20 20 19 19 18 18 18 18 18 18 18 18 17 17 17 17 17 17 17 17 17 17 17 17 17 17 17 17 17 17 17 17 17 17
24 23 23 22 21 21 20 20 20 20 20 19 19 19 18 18 18 18 18 18 17 17 17 17 17 17 17 17 17 17 17 17 17 17 17 17 17 17 17 17 17 17 17
24 23 22 21 21 21 20 20 20 20 19 19 19 19 18 18 18 18 18 18 17 17 17 17 17 17 17 17 17 17 17 17 17 17 17 16 16 17 17 17 17 17 16
24 23 22 21 21 21 20 20 20 20 19 19 19 18 18 18 18 18 18 18 17 17 17 17 17 17 17 17 17 17 17 17 17 17 16 16 16 16 16 16 16 16 16
24 23 22 22 21 21 20 20 20 20 19 19 19 19 18 18 18 18 18 17 17 17 17 17 17 17 17 17 17 17 17 16 16 16 16 16 16 16 16 16 16 16 16
24 23 22 22 21 21 20 20 20 20 19 19 19 19 18 18 18 18 17 17 17 17 17 17 17 17 17 17 17 17 17 16 16 16 16 16 16 16 16 16 16 16 16
24 23 22 22 21 21 20 20 20 20 19 19 18 18 18 18 18 17 17 17 17 17 17 17 17 17 17 17 17 16 16 16 16 16 16 16 16 16 16 16 16 15 15
24 23 22 22 21 20 20 20 19 19 19 19 18 18 18 18 17 17 17 17 17 17 17 17 17 17 16 16 16 16 16 16 16 16 16 16 16 15 15 15 15 15 15
24 23 22 21 21 21 20 20 19 19 19 19 18 18 18 17 17 17 17 17 17 17 17 17 17 17 16 16 16 16 16 16 16 16 16 15 15 15 15 15 15 15 15
23 23 22 21 21 20 20 20 19 19 19 18 18 18 18 17 17 17 17 17 17 17 17 17 16 16 16 16 16 16 15 15 16 15 15 15 15 15 15 15 15 15 14
23 22 22 21 21 20 20 20 19 19 18 18 18 18 18 18 18 17 17 17 17 17 17 16 16 16 16 16 15 15 15 15 15 15 15 15 15 15 15 15 14 14 14
23 22 21 21 20 20 20 19 19 19 18 18 18 18 18 18 17 17 17 17 17 16 16 16 16 16 15 15 15 15 15 15 15 15 14 14 14 14 14 14 14 14 14
23 22 21 20 20 20 20 19 19 19 19 18 18 18 18 17 17 17 17 17 16 16 16 16 15 15 15 15 15 15 15 15 14 14 14 14 14 14 14 14 14 14 13
23 22 21 21 20 20 20 20 19 19 18 18 18 17 17 17 17 17 17 16 16 16 16 15 15 15 15 15 15 15 14 14 14 14 14 14 13 13 13 13 13 13 13
23 22 21 21 20 20 20 20 19 18 18 18 17 17 17 17 17 16 16 16 16 16 15 15 15 15 14 14 14 14 14 14 14 13 13 13 13 13 13 13 13 13 12
22 21 21 21 20 20 20 19 19 18 18 17 17 17 17 16 16 16 16 16 16 15 15 15 14 14 14 14 14 14 13 13 13 13 13 13 13 13 12 12 12 12 12
21 21 20 20 20 19 19 19 18 18 18 17 17 17 17 16 16 16 16 15 15 15 15 14 14 14 14 14 13 13 13 13 13 12 12 12 12 12 12 11 11 11 11
20 20 20 20 20 19 19 19 18 18 18 17 17 17 16 16 15 15 15 15 15 14 14 14 14 13 13 13 13 13 12 12 12 12 12 12 12 12 12 11 11 11 11
19 19 19 19 19 19 19 18 18 18 17 17 17 16 16 15 15 15 15 14 14 14 13 13 13 13 13 13 13 12 12 12 12 11 11 11 11 11 11 11 11 11 11
18 18 19 18 18 18 18 17 17 17 17 17 16 16 15 15 15 15 14 14 14 13 13 13 13 12 12 12 12 12 12 12 11 11 11 11 11 10 10 10 10 10 10
17 17 17 17 17 17 17 17 17 17 16 16 16 16 15 15 14 14 14 13 13 13 13 12 12 12 12 12 12 11 11 11 11 11 11 10 10 10 10 10 10 10 9
16 16 16 16 16 16 16 16 16 16 16 16 15 15 15 14 14 14 13 13 13 13 12 12 12 12 11 11 11 11 11 10 10 10 10 9 9 9 9 9 9 9 9
16 16 16 16 16 16 16 16 15 15 15 15 15 15 14 14 14 13 13 13 13 12 12 12 12 11 11 11 11 11 10 10 10 9 9 9 9 9 9 9 9 9 8
Wind_Speed
10 11 12 12 12 12 12 12 12 11 9 7 7 7 6 6 6 6 7 7 7 7 7 5 5 5 5 4 5 4 4 4 3 3 3 4 5 5 4 5 4 5 6
10 11 12 12 13 13 12 12 12 12 10 8 6 5 5 5 5 5 6 7 7 7 7 6 5 5 5 5 5 5 4 4 4 4 4 4 4 5 5 4 4 4 4
11 12 12 12 12 12 12 11 12 12 11 9 7 6 5 5 5 6 6 7 8 8 7 6 6 5 6 6 6 6 7 5 5 5 4 4 3 2 3 3 3 3 3
10 11 12 12 12 11 11 11 11 11 11 10 9 9 7 7 6 5 5 6 7 7 7 7 7 6 5 5 7 7 6 6 6 5 5 6 4 3 2 3 3 4 4
10 11 11 11 10 10 10 10 10 10 11 11 10 8 8 6 5 5 5 5 5 6 6 6 6 6 6 6 6 5 7 6 7 5 5 6 5 6 6 5 4 3 4
9 9 9 9 8 9 9 10 10 10 10 10 9 9 8 7 6 5 5 5 4 5 5 6 5 6 5 5 6 6 7 7 7 6 6 6 6 6 6 6 6 5 4
9 10 10 9 9 9 10 10 10 9 9 9 8 8 8 7 7 6 5 5 4 4 4 5 5 5 5 5 6 6 6 7 7 7 7 7 7 6 6 6 6 6 5
10 9 9 9 9 9 10 10 9 9 8 8 8 7 7 6 5 6 5 5 4 3 3 4 4 5 5 5 5 5 6 6 6 7 7 6 7 6 6 6 5 5 5
10 10 9 8 8 9 9 9 9 9 8 8 7 6 6 6 5 5 5 4 3 3 4 4 4 4 4 4 5 4 5 5 6 6 6 6 6 5 6 6 6 6 6
10 10 9 9 8 8 8 9 9 8 8 7 6 5 5 5 5 5 4 4 3 3 3 3 4 4 4 4 4 4 4 4 4 4 5 5 5 5 5 6 6 6 6
11 10 10 9 8 8 8 8 8 8 7 7 6 4 4 4 4 4 4 4 3 3 3 3 3 4 4 4 3 4 3 4 3 3 3 4 5 5 4 5 5 5 5
10 11 10 9 8 8 8 8 8 7 7 7 6 5 4 3 3 3 3 3 3 3 3 3 3 4 3 3 4 4 3 3 3 3 3 4 4 4 4 4 4 4 4
11 11 10 9 9 8 8 8 7 7 7 7 7 5 4 3 2 2 2 3 3 2 2 2 2 2 2 2 2 3 2 2 2 2 3 3 3 3 3 3 3 3 3
11 11 11 10 9 8 8 8 7 7 7 7 7 6 5 4 3 2 2 2 2 2 1 1 1 1 1 1 1 2 2 1 1 1 1 2 2 2 2 2 2 2 3
12 12 12 11 10 9 9 8 7 7 7 7 7 6 5 5 4 3 3 3 2 2 2 2 1 1 1 1 1 1 1 1 1 0 0 1 2 3 2 2 2 2 3
13 13 13 12 11 10 9 9 8 8 8 7 7 6 6 6 5 4 4 4 3 3 3 3 2 2 1 3 2 1 1 1 1 0 0 0 0 1 2 2 2 2 2
12 13 13 12 11 10 9 9 9 8 8 7 6 6 6 6 5 5 5 4 4 4 3 3 2 2 4 5 3 2 0 0 0 0 1 1 1 1 1 1 1 0 1
10 11 12 11 11 10 10 9 9 8 8 7 6 6 6 6 6 5 5 4 4 4 3 3 3 3 4 5 3 1 1 1 1 1 1 1 1 2 2 1 1 1 1
7 9 10 11 10 10 10 10 9 8 7 7 6 6 6 6 6 6 5 4 4 4 4 4 4 4 4 5 2 1 1 1 1 2 2 1 2 3 3 1 1 1 1
6 8 10 10 10 9 10 10 9 8 7 7 6 6 6 5 5 5 5 4 4 4 4 4 4 4 4 5 3 1 1 1 1 2 2 4 3 3 3 0 0 0 1
7 9 10 10 9 9 9 9 9 8 7 6 6 6 6 5 5 5 4 4 4 4 4 4 4 4 4 5 3 2 0 1 1 1 1 2 3 3 4 3 1 2 2
7 8 9 8 8 9 9 8 8 7 7 7 6 6 5 5 5 5 4 4 4 5 4 4 3 3 3 3 2 2 2 3 1 1 1 2 2 1 1 1 2 3 4
6 7 8 8 7 7 6 6 6 6 6 6 6 5 5 4 4 4 4 4 4 3 3 3 3 2 2 3 3 2 2 3 1 1 4 3 2 2 2 1 2 3 1
6 6 7 7 6 5 5 5 5 6 6 6 6 5 5 5 4 3 3 3 2 3 3 2 2 2 2 2 2 1 2 2 2 2 4 4 2 1 2 2 1 0 1
5 5 5 6 6 5 5 4 5 6 6 6 5 5 5 5 4 4 2 2 2 1 1 2 2 2 2 1 1 1 2 1 1 2 2 2 2 1 1 1 1 1 1
5 5 5 5 5 5 4 4 4 5 6 5 5 4 4 4 4 5 4 4 3 5 4 3 2 2 3 4 3 2 3 2 1 2 2 2 2 2 2 2 2 1 1
Wind_Direction
187 183 183 186 185 187 187 189 195 190 190 194 200 205 210 214 211 212 213 216 222 218 220 229 208 218 217 221 216 216 213 224 226 238 239 231 223 225 228 231 237 225 223
183 182 185 187 190 189 191 192 195 193 195 198 205 212 213 219 214 213 208 218 222 223 220 223 226 221 218 218 221 222 234 235 225 242 251 247 225 213 216 219 221 233 230
190 186 188 191 193 193 191 193 193 193 199 195 200 206 207 220 212 213 212 219 222 223 230 226 232 232 230 220 222 225 231 240 237 236 251 260 253 250 202 213 224 225 238
194 190 191 193 195 193 190 193 192 195 195 194 202 206 212 216 219 219 215 216 220 225 227 227 230 234 237 232 233 228 235 238 244 236 242 258 283 270 250 226 218 220 236
192 191 192 189 190 190 188 190 190 192 194 198 201 208 217 221 223 220 216 221 219 227 229 224 226 230 237 234 240 239 239 238 242 246 247 247 247 247 256 258 253 250 251
179 181 181 178 183 185 185 186 188 194 193 197 202 208 215 216 219 221 219 218 216 224 224 227 227 233 238 235 235 237 236 245 251 251 253 252 252 249 249 257 256 258 258
172 174 175 177 179 181 182 183 184 190 192 196 203 211 214 215 218 226 221 224 227 225 218 230 228 235 237 238 238 239 245 243 247 249 252 254 256 260 256 257 261 263 265
169 171 173 174 176 178 179 180 180 185 189 192 197 206 211 217 220 222 228 223 233 232 223 226 229 235 238 242 239 246 244 245 249 253 257 259 259 256 251 247 250 258 258
165 167 168 170 172 175 178 179 180 182 187 190 191 198 208 219 221 217 223 227 229 226 219 225 227 232 238 243 242 248 251 251 254 259 256 258 264 258 250 246 242 248 260
164 165 166 168 168 169 171 174 177 180 184 185 190 190 198 205 215 222 218 221 221 226 224 231 238 240 239 238 240 250 252 254 260 266 275 272 271 272 261 254 249 249 253
166 165 164 163 161 161 163 168 171 173 176 178 179 187 188 194 204 213 214 213 221 225 232 236 239 244 245 240 234 246 247 250 264 275 277 278 281 275 269 257 248 243 238
166 164 161 159 160 161 161 163 166 169 170 167 167 173 178 185 198 205 209 206 213 224 228 237 237 245 244 236 233 242 246 249 264 278 289 287 282 272 270 263 251 244 237
167 165 163 164 163 160 160 158 164 165 161 160 162 163 168 172 180 198 204 199 205 210 219 231 233 242 244 232 226 231 234 235 252 274 280 288 290 283 277 268 261 252 239
171 172 169 167 163 160 159 157 160 158 158 159 160 159 163 162 162 174 174 168 164 158 158 174 192 204 206 197 210 213 209 206 231 269 282 293 299 297 294 279 266 251 241
178 178 175 169 165 162 161 161 158 156 155 155 155 156 159 159 159 156 149 142 139 137 134 133 127 129 153 147 158 206 192 180 178 109 343 337 15 20 349 311 291 260 248
182 180 176 170 169 168 164 159 158 157 156 157 156 157 161 162 161 156 147 141 137 133 136 133 142 140 123 81 73 39 156 168 166 127 329 317 73 74 67 42 10 328 266
182 179 175 172 168 166 163 161 159 158 159 157 158 161 164 162 163 159 149 142 140 140 137 135 141 130 98 85 79 51 9 56 70 52 0 344 40 72 65 98 146 47 351
181 176 171 167 165 161 159 157 156 158 157 157 161 165 166 162 161 159 152 150 149 151 144 138 137 127 107 95 91 83 141 88 59 54 51 35 18 16 16 34 28 14 15
174 167 164 160 158 158 157 156 156 159 160 162 166 166 166 166 163 162 160 159 159 154 148 137 131 125 114 107 107 307 138 125 93 69 51 48 60 27 0 43 40 21 18
147 150 151 149 151 155 157 159 160 162 166 167 169 166 165 166 166 164 162 157 156 152 144 132 132 129 119 110 100 330 141 118 109 98 83 63 51 19 351 348 245 275 312
138 142 145 146 147 150 156 162 163 166 163 158 159 159 161 163 164 162 159 155 149 141 134 127 123 119 110 113 99 346 250 155 160 143 115 77 62 24 347 327 343 297 284
130 138 139 138 141 150 158 161 159 157 155 153 153 152 156 159 154 158 155 153 152 152 147 140 135 124 120 102 98 29 346 327 178 170 118 100 97 57 344 18 11 286 270
117 129 133 133 137 145 152 154 146 149 152 152 149 148 145 140 144 151 152 159 167 170 162 160 158 148 137 118 98 78 20 350 11 82 71 101 157 182 149 128 268 268 240
108 121 127 128 128 131 133 134 137 145 147 146 144 146 148 145 141 142 151 162 170 177 174 175 176 168 157 143 137 147 139 129 123 116 121 143 178 227 87 152 196 140 62
102 111 118 121 120 119 122 128 132 141 144 145 147 153 156 151 146 141 127 150 123 102 193 187 193 198 196 158 92 186 167 183 146 150 158 165 168 175 147 134 109 119 129
104 110 118 120 118 117 121 129 141 152 155 155 157 162 163 159 162 154 141 74 82 94 79 37 6 108 91 119 121 57 52 62 128 197 180 186 194 202 199 202 190 178 147
Height
1543 1545 1547 1548 1550 1552 1554 1556 1558 1560 1562 1564 1566 1567 1569 1570 1571 1572 1572 1573 1574 1575 1576 1577 1578 1579 1580 1580 1581 1582 1582 1583 1584 1584 1584 1584 1584 1584 1584 1584 1585 1585 1585
1541 1543 1544 1546 1548 1550 1552 1554 1556 1558 1560 1562 1564 1566 1567 1568 1569 1570 1571 1571 1572 1573 1575 1575 1576 1577 1578 1578 1579 1579 1581 1581 1582 1583 1583 1583 1583 1582 1582 1582 1582 1582 1582
1538 1540 1542 1544 1546 1548 1549 1552 1554 1555 1558 1560 1562 1563 1565 1566 1568 1568 1569 1570 1571 1572 1572 1573 1574 1574 1575 1576 1576 1577 1578 1579 1580 1580 1581 1581 1580 1580 1580 1579 1579 1579 1579
1536 1538 1540 1542 1544 1546 1548 1549 1551 1553 1555 1557 1559 1561 1562 1564 1565 1566 1567 1568 1569 1569 1570 1570 1571 1572 1573 1573 1574 1575 1575 1576 1577 1577 1577 1578 1578 1578 1578 1578 1577 1577 1577
1533 1536 1538 1540 1542 1544 1546 1547 1549 1551 1553 1554 1556 1558 1560 1562 1563 1564 1565 1566 1567 1567 1568 1568 1569 1569 1570 1571 1571 1572 1572 1573 1574 1574 1574 1575 1575 1575 1575 1575 1575 1574 1574
1532 1534 1537 1539 1541 1542 1544 1545 1547 1549 1550 1552 1554 1556 1557 1559 1560 1561 1562 1564 1565 1565 1566 1566 1566 1567 1567 1568 1568 1569 1569 1570 1570 1570 1571 1571 1572 1572 1572 1571 1571 1570 1571
1530 1533 1535 1537 1539 1540 1542 1543 1545 1546 1548 1550 1552 1554 1555 1557 1558 1560 1561 1561 1563 1563 1563 1564 1564 1564 1565 1565 1566 1566 1566 1566 1566 1567 1567 1567 1567 1568 1568 1568 1567 1567 1567
1529 1531 1534 1536 1537 1539 1540 1542 1543 1545 1546 1548 1550 1552 1553 1555 1556 1557 1559 1559 1560 1561 1561 1561 1561 1562 1562 1562 1562 1563 1563 1563 1563 1563 1563 1563 1563 1563 1563 1564 1564 1563 1563
1528 1530 1533 1534 1536 1537 1539 1540 1542 1543 1545 1546 1548 1549 1551 1552 1553 1555 1556 1557 1557 1558 1558 1558 1559 1559 1559 1559 1560 1560 1560 1560 1560 1560 1559 1559 1560 1560 1559 1560 1560 1560 1559
1526 1529 1531 1533 1534 1536 1537 1538 1540 1541 1543 1545 1546 1547 1548 1549 1551 1553 1553 1554 1555 1555 1556 1556 1556 1557 1557 1557 1557 1557 1557 1556 1556 1556 1556 1556 1556 1556 1555 1556 1556 1556 1556
1525 1527 1530 1532 1533 1535 1536 1537 1538 1540 1541 1543 1545 1546 1547 1548 1549 1550 1551 1552 1553 1553 1553 1554 1554 1554 1554 1554 1554 1554 1554 1554 1554 1553 1553 1552 1552 1552 1552 1552 1552 1552 1552
1524 1527 1529 1531 1532 1534 1535 1536 1537 1539 1540 1542 1543 1544 1546 1546 1548 1549 1549 1550 1550 1551 1551 1551 1551 1551 1551 1551 1551 1551 1551 1551 1551 1551 1550 1550 1549 1549 1549 1548 1549 1549 1549
1523 1526 1528 1530 1531 1533 1534 1536 1537 1538 1539 1541 1542 1543 1544 1545 1546 1547 1547 1548 1548 1548 1549 1549 1549 1549 1549 1549 1549 1549 1549 1548 1548 1548 1548 1547 1547 1546 1546 1546 1546 1546 1546
1521 1524 1526 1528 1530 1532 1533 1535 1536 1537 1539 1540 1541 1542 1543 1544 1544 1545 1546 1546 1546 1547 1547 1547 1547 1547 1547 1547 1547 1546 1546 1546 1546 1546 1545 1545 1544 1544 1543 1543 1543 1543 1543
1519 1521 1524 1526 1528 1530 1532 1534 1536 1537 1538 1539 1540 1541 1542 1543 1543 1544 1544 1544 1544 1545 1545 1545 1545 1545 1545 1545 1544 1544 1544 1544 1544 1543 1543 1542 1542 1541 1541 1541 1541 1540 1540
1516 1519 1522 1524 1526 1529 1531 1533 1534 1536 1537 1538 1539 1540 1540 1541 1542 1542 1542 1543 1543 1543 1543 1543 1543 1543 1543 1542 1542 1542 1542 1542 1542 1541 1541 1540 1540 1539 1539 1539 1538 1538 1538
1514 1516 1519 1522 1524 1526 1529 1531 1533 1535 1536 1537 1538 1538 1539 1539 1540 1540 1540 1541 1541 1541 1541 1541 1541 1541 1540 1540 1540 1540 1540 1540 1540 1539 1539 1539 1538 1538 1537 1537 1536 1536 1535
1512 1514 1517 1519 1522 1525 1527 1529 1531 1533 1534 1535 1536 1536 1537 1538 1538 1538 1538 1539 1539 1540 1540 1540 1540 1539 1539 1538 1538 1538 1538 1538 1538 1537 1537 1536 1536 1536 1535 1535 1534 1534 1533
1510 1512 1515 1518 1520 1522 1525 1527 1530 1532 1532 1534 1534 1534 1535 1535 1536 1536 1536 1537 1537 1538 1538 1538 1538 1538 1537 1537 1537 1537 1536 1536 1536 1536 1535 1535 1535 1534 1533 1533 1532 1531 1531
1508 1510 1513 1516 1518 1521 1523 1525 1527 1529 1531 1531 1532 1532 1532 1533 1534 1534 1535 1536 1536 1536 1537 1537 1537 1537 1536 1536 1536 1535 1536 1535 1535 1534 1534 1533 1533 1532 1532 1531 1531 1530 1529
1507 1509 1511 1514 1516 1519 1521 1523 1525 1527 1528 1529 1530 1530 1530 1531 1532 1533 1534 1534 1535 1535 1536 1536 1536 1536 1535 1535 1535 1534 1534 1534 1534 1534 1533 1532 1531 1531 1530 1529 1529 1528 1528
1507 1508 1510 1513 1515 1517 1519 1520 1522 1524 1526 1527 1528 1528 1529 1530 1531 1531 1532 1533 1533 1534 1534 1534 1535 1535 1534 1534 1534 1533 1533 1533 1533 1533 1532 1531 1530 1529 1529 1528 1527 1527 1526
1507 1509 1510 1512 1514 1517 1519 1520 1521 1523 1524 1525 1526 1527 1528 1528 1529 1530 1530 1531 1532 1533 1533 1533 1534 1534 1533 1532 1532 1532 1531 1531 1531 1531 1530 1529 1529 1528 1527 1527 1525 1525 1525
1508 1510 1511 1512 1514 1516 1517 1519 1520 1522 1523 1524 1525 1526 1526 1527 1528 1528 1529 1530 1531 1531 1532 1532 1532 1532 1531 1530 1530 1529 1529 1529 1529 1529 1528 1528 1527 1527 1526 1525 1525 1524 1523
1508 1510 1511 1512 1514 1515 1516 1518 1519 1520 1522 1523 1523 1524 1525 1526 1526 1527 1527 1529 1529 1530 1530 1530 1530 1530 1530 1529 1528 1528 1527 1528 1527 1527 1527 1527 1526 1526 1525 1525 1524 1523 1523
1509 1510 1511 1512 1513 1514 1516 1517 1518 1519 1520 1521 1522 1523 1524 1525 1525 1526 1526 1526 1527 1527 1527 1528 1528 1528 1528 1527 1526 1526 1526 1525 1525 1526 1526 1526 1525 1525 1524 1524 1523 1522 1522